Regional Weather Roundup
Issued by NWS

Home | Current Version | Previous Version | Text Only | Print | Product List | Glossary Off
Versions: 1 2 3 4 5 6 7 8 9 10 11 12 13 14 15 16 17 18 19 20 21 22 23 24 25 26 27 28 29 30 31 32 33 34 35 36 37 38 39 40 41 42 43 44 45 46 47 48 49 50

000
ASUS43 KLMK 252010
RWRKY
KENTUCKY REGIONAL WEATHER ROUNDUP
NATIONAL WEATHER SERVICE LOUISVILLE KY
400 PM EDT TUE JUL 25 2017

NOTE "FAIR" INDICATES FEW OR NO CLOUDS BELOW 12,000 FEET
WITH NO SIGNIFICANT WEATHER AND/OR OBSTRUCTIONS TO VISIBILITY.

KYZ001>023-026-027-061>063-070>075-252100-
WESTERN AND SOUTH CENTRAL KENTUCKY

CITY           SKY/WX    TMP DP  RH WIND       PRES   REMARKS
PADUCAH        TSTM      76  72  87 SE7       30.09S FOG
HENDERSON      SUNNY     88  73  61 E7        30.10F HX  95
OWENSBORO      MOSUNNY   89  70  53 NE12      30.10F HX  94
HOPKINSVILLE   MOSUNNY   88  73  60 E5        30.09R HX  96
BOWLING GREEN  MOSUNNY   90  72  55 NE7       30.09F HX  97
GLASGOW        SUNNY     91  66  43 CALM      30.11S HX  94
$$

KYZ024-025-028>034-038-045-046-053-252100-
NORTH CENTRAL KENTUCKY

CITY           SKY/WX    TMP DP  RH WIND       PRES   REMARKS
LOUISVILLE/SDF MOSUNNY   87  64  46 VRB5      30.12S
LOUISVILLE/LOU MOSUNNY   87  67  51 VRB3      30.13S HX  90
FORT KNOX      MOSUNNY   83  67  59 N6        30.12S
$$

KYZ035>037-039>044-047>052-055>060-089>105-252100-
NORTHEAST KENTUCKY

CITY           SKY/WX    TMP DP  RH WIND       PRES   REMARKS
LEXINGTON      SUNNY     84  64  50 N8        30.16S
COVINGTON      MOSUNNY   81  59  47 MISG      30.17S
FRANKFORT      PTSUNNY   83  62  49 VRB5      30.14F
$$

KYZ054-064>069-076>088-106>120-252100-
SOUTHEAST KENTUCKY

CITY           SKY/WX    TMP DP  RH WIND       PRES   REMARKS
JACKSON        PTSUNNY   81  68  64 CALM      30.17S
LONDON         MOSUNNY   86  63  45 NE6       30.14F
SOMERSET       PTSUNNY   84  63  48 N7        30.15S
MIDDLESBORO    SUNNY     88  69  53 N7        30.12S HX  92
MONTICELLO     MOCLDY    86  71  60 N16G22    30.15S HX  91
$$





USA.gov is the U.S. government's official web portal to all federal, state and local government web resources and services.